Time,TemperatureF,DewpointF,PressureIn,WindDirection,WindDirectionDegrees,WindSpeedMPH,WindSpeedGustMPH,Humidity,HourlyPrecipIn,Conditions,Clouds,dailyrainin,SoftwareType,DateUTC
2013-05-15 00:01:00,51.8,40.4,29.96,East,90,0.0,0.0,65,0.00,,,0.00,WUHU216HW,2013-05-15 04:01:00,
2013-05-15 00:06:00,51.8,40.4,29.96,SE,135,0.0,0.0,65,0.00,,,0.00,WUHU216HW,2013-05-15 04:06:00,
2013-05-15 00:11:00,51.8,40.4,29.96,ESE,113,0.0,0.0,65,0.00,,,0.00,WUHU216HW,2013-05-15 04:11:00,
2013-05-15 00:16:00,51.8,40.4,29.96,East,90,0.0,0.0,65,0.00,,,0.00,WUHU216HW,2013-05-15 04:16:00,
2013-05-15 00:21:00,51.8,40.9,29.95,ENE,68,0.0,0.0,66,0.00,,,0.00,WUHU216HW,2013-05-15 04:21:00,
2013-05-15 00:26:00,51.8,40.9,29.95,ENE,68,0.0,0.0,66,0.00,,,0.00,WUHU216HW,2013-05-15 04:26:00,
2013-05-15 00:31:00,51.8,40.9,29.94,ESE,113,0.0,0.0,66,0.00,,,0.00,WUHU216HW,2013-05-15 04:31:00,
2013-05-15 00:36:00,51.8,40.9,29.94,ENE,68,0.0,0.0,66,0.00,,,0.00,WUHU216HW,2013-05-15 04:36:00,
2013-05-15 00:41:00,51.8,40.9,29.94,East,90,0.0,0.0,66,0.00,,,0.00,WUHU216HW,2013-05-15 04:41:00,
2013-05-15 00:46:00,51.8,41.2,29.94,East,90,0.0,0.0,67,0.00,,,0.00,WUHU216HW,2013-05-15 04:46:00,
2013-05-15 00:51:00,51.8,41.2,29.94,East,90,0.0,0.0,67,0.00,,,0.00,WUHU216HW,2013-05-15 04:51:00,
2013-05-15 00:56:00,51.8,41.2,29.93,East,90,0.0,0.0,67,0.00,,,0.00,WUHU216HW,2013-05-15 04:56:00,
2013-05-15 01:01:00,51.7,41.5,29.93,ESE,113,0.0,0.0,68,0.00,,,0.00,WUHU216HW,2013-05-15 05:01:00,
2013-05-15 01:06:00,51.7,41.0,29.93,East,90,0.0,0.0,67,0.00,,,0.00,WUHU216HW,2013-05-15 05:06:00,
2013-05-15 01:11:00,51.5,40.9,29.93,ESE,113,0.0,0.0,67,0.00,,,0.00,WUHU216HW,2013-05-15 05:11:00,
2013-05-15 01:16:00,51.3,41.1,29.92,East,90,0.0,0.0,68,0.00,,,0.00,WUHU216HW,2013-05-15 05:16:00,
2013-05-15 01:21:00,51.1,41.0,29.92,ESE,113,0.0,0.0,68,0.00,,,0.00,WUHU216HW,2013-05-15 05:21:00,
2013-05-15 01:26:00,50.9,40.8,29.91,East,90,0.0,0.0,68,0.00,,,0.00,WUHU216HW,2013-05-15 05:26:00,
2013-05-15 01:31:00,50.8,40.6,29.92,ESE,113,0.0,0.0,68,0.00,,,0.00,WUHU216HW,2013-05-15 05:31:00,
2013-05-15 01:36:00,50.8,40.6,29.91,East,90,0.0,0.0,68,0.00,,,0.00,WUHU216HW,2013-05-15 05:36:00,
2013-05-15 01:41:00,50.6,40.9,29.91,East,90,0.0,0.0,69,0.00,,,0.00,WUHU216HW,2013-05-15 05:41:00,
2013-05-15 01:46:00,50.2,40.1,29.91,ENE,68,0.0,0.0,68,0.00,,,0.00,WUHU216HW,2013-05-15 05:46:00,
2013-05-15 01:51:00,50.0,40.3,29.91,ESE,113,0.0,0.0,69,0.00,,,0.00,WUHU216HW,2013-05-15 05:51:00,
2013-05-15 01:56:00,50.0,40.3,29.91,East,90,0.0,0.0,69,0.00,,,0.00,WUHU216HW,2013-05-15 05:56:00,
2013-05-15 02:01:00,49.9,40.5,29.92,East,90,0.0,0.0,70,0.00,,,0.00,WUHU216HW,2013-05-15 06:01:00,
2013-05-15 02:06:00,49.9,40.5,29.92,East,90,0.0,0.0,70,0.00,,,0.00,WUHU216HW,2013-05-15 06:06:00,
2013-05-15 02:11:00,50.0,41.1,29.91,ESE,113,0.0,0.0,71,0.00,,,0.00,WUHU216HW,2013-05-15 06:11:00,
2013-05-15 02:16:00,50.0,40.7,29.91,ESE,113,0.0,0.0,70,0.00,,,0.00,WUHU216HW,2013-05-15 06:16:00,
2013-05-15 02:21:00,50.0,40.7,29.91,East,90,0.0,0.0,70,0.00,,,0.00,WUHU216HW,2013-05-15 06:21:00,
2013-05-15 02:26:00,50.0,40.7,29.91,East,90,0.0,0.0,70,0.00,,,0.00,WUHU216HW,2013-05-15 06:26:00,
2013-05-15 02:31:00,50.0,41.1,29.91,ESE,113,0.0,0.0,71,0.00,,,0.00,WUHU216HW,2013-05-15 06:31:00,
2013-05-15 02:36:00,50.2,40.9,29.91,East,90,0.0,0.0,70,0.00,,,0.00,WUHU216HW,2013-05-15 06:36:00,
2013-05-15 02:41:00,50.2,41.2,29.91,ENE,68,0.0,0.0,71,0.00,,,0.00,WUHU216HW,2013-05-15 06:41:00,
2013-05-15 02:46:00,50.2,41.2,29.91,ENE,68,0.0,0.0,71,0.00,,,0.00,WUHU216HW,2013-05-15 06:46:00,
2013-05-15 02:51:00,50.2,41.6,29.90,East,90,0.0,0.0,72,0.00,,,0.00,WUHU216HW,2013-05-15 06:51:00,
2013-05-15 02:56:00,50.2,41.2,29.89,East,90,0.0,0.0,71,0.00,,,0.00,WUHU216HW,2013-05-15 06:56:00,
2013-05-15 03:01:00,50.2,41.2,29.89,ESE,113,0.0,0.0,71,0.00,,,0.00,WUHU216HW,2013-05-15 07:01:00,
2013-05-15 03:06:00,50.0,41.4,29.89,East,90,0.0,0.0,72,0.00,,,0.00,WUHU216HW,2013-05-15 07:06:00,
2013-05-15 03:11:00,50.0,41.4,29.89,East,90,0.0,0.0,72,0.00,,,0.00,WUHU216HW,2013-05-15 07:11:00,
2013-05-15 03:16:00,50.0,41.4,29.88,East,90,0.0,0.0,72,0.00,,,0.00,WUHU216HW,2013-05-15 07:16:00,
2013-05-15 03:21:00,50.0,41.4,29.88,ESE,113,0.0,0.0,72,0.00,,,0.00,WUHU216HW,2013-05-15 07:21:00,
2013-05-15 03:26:00,50.0,41.4,29.88,East,90,0.0,0.0,72,0.00,,,0.00,WUHU216HW,2013-05-15 07:26:00,
2013-05-15 03:31:00,50.0,41.4,29.87,East,90,0.0,0.0,72,0.00,,,0.00,WUHU216HW,2013-05-15 07:31:00,
2013-05-15 03:36:00,50.0,41.4,29.86,ENE,68,0.0,0.0,72,0.00,,,0.00,WUHU216HW,2013-05-15 07:36:00,
2013-05-15 03:41:00,50.0,41.4,29.86,East,90,0.0,0.0,72,0.00,,,0.00,WUHU216HW,2013-05-15 07:41:00,
2013-05-15 03:46:00,49.7,41.1,29.86,ESE,113,0.0,0.0,72,0.00,,,0.00,WUHU216HW,2013-05-15 07:46:00,
2013-05-15 03:51:00,49.7,41.3,29.86,East,90,0.0,0.0,73,0.00,,,0.00,WUHU216HW,2013-05-15 07:51:00,
2013-05-15 03:56:00,49.7,41.3,29.86,ESE,113,0.0,0.0,73,0.00,,,0.00,WUHU216HW,2013-05-15 07:56:00,
2013-05-15 04:01:00,49.7,41.3,29.85,East,90,0.0,0.0,73,0.00,,,0.00,WUHU216HW,2013-05-15 08:01:00,
2013-05-15 04:06:00,49.7,41.3,29.85,East,90,0.0,0.0,73,0.00,,,0.00,WUHU216HW,2013-05-15 08:06:00,
2013-05-15 04:11:00,49.7,41.7,29.85,East,90,0.0,0.0,74,0.00,,,0.00,WUHU216HW,2013-05-15 08:11:00,
2013-05-15 04:16:00,49.7,41.3,29.85,ESE,113,0.0,0.0,73,0.00,,,0.00,WUHU216HW,2013-05-15 08:16:00,
2013-05-15 04:21:00,49.7,41.3,29.85,ESE,113,0.0,0.0,73,0.00,,,0.00,WUHU216HW,2013-05-15 08:21:00,
2013-05-15 04:26:00,49.7,41.3,29.86,ENE,68,0.0,0.0,73,0.00,,,0.00,WUHU216HW,2013-05-15 08:26:00,
2013-05-15 04:31:00,49.9,41.5,29.85,East,90,0.0,0.0,73,0.00,,,0.00,WUHU216HW,2013-05-15 08:31:00,
2013-05-15 04:36:00,50.0,42.0,29.84,East,90,0.0,0.0,74,0.00,,,0.00,WUHU216HW,2013-05-15 08:36:00,
2013-05-15 04:41:00,50.0,42.0,29.83,ESE,113,0.0,0.0,74,0.00,,,0.00,WUHU216HW,2013-05-15 08:41:00,
2013-05-15 04:46:00,50.0,42.4,29.82,East,90,0.0,0.0,75,0.00,,,0.00,WUHU216HW,2013-05-15 08:46:00,
2013-05-15 04:51:00,50.0,42.8,29.82,East,90,0.0,0.0,76,0.00,,,0.00,WUHU216HW,2013-05-15 08:51:00,
2013-05-15 04:56:00,49.9,42.6,29.82,East,90,0.0,0.0,76,0.00,,,0.00,WUHU216HW,2013-05-15 08:56:00,
2013-05-15 05:01:00,49.9,42.9,29.83,East,90,0.0,0.0,77,0.00,,,0.00,WUHU216HW,2013-05-15 09:01:00,
2013-05-15 05:06:00,49.9,42.6,29.83,ESE,113,0.0,0.0,76,0.00,,,0.00,WUHU216HW,2013-05-15 09:06:00,
2013-05-15 05:11:00,49.9,42.9,29.83,East,90,0.0,0.0,77,0.00,,,0.00,WUHU216HW,2013-05-15 09:11:00,
2013-05-15 05:16:00,49.9,42.6,29.83,ENE,68,0.0,0.0,76,0.00,,,0.00,WUHU216HW,2013-05-15 09:16:00,
2013-05-15 05:21:00,50.0,42.8,29.83,ENE,68,0.0,0.0,76,0.00,,,0.00,WUHU216HW,2013-05-15 09:21:00,
2013-05-15 05:26:00,50.0,42.4,29.83,ENE,68,0.0,0.0,75,0.00,,,0.00,WUHU216HW,2013-05-15 09:26:00,
2013-05-15 05:31:00,50.0,42.8,29.83,ESE,113,0.0,0.0,76,0.00,,,0.00,WUHU216HW,2013-05-15 09:31:00,
2013-05-15 05:36:00,50.0,43.1,29.80,ENE,68,0.0,0.0,77,0.00,,,0.00,WUHU216HW,2013-05-15 09:36:00,
2013-05-15 05:41:00,49.9,42.9,29.80,ESE,113,0.0,0.0,77,0.00,,,0.00,WUHU216HW,2013-05-15 09:41:00,
2013-05-15 05:46:00,49.9,42.9,29.81,ESE,113,0.0,0.0,77,0.00,,,0.00,WUHU216HW,2013-05-15 09:46:00,
2013-05-15 05:51:00,49.9,43.2,29.81,East,90,0.0,0.0,78,0.00,,,0.00,WUHU216HW,2013-05-15 09:51:00,
2013-05-15 05:56:00,49.9,42.9,29.80,East,90,0.0,0.0,77,0.00,,,0.00,WUHU216HW,2013-05-15 09:56:00,
2013-05-15 06:01:00,49.9,42.6,29.80,ESE,113,0.0,0.0,76,0.00,,,0.00,WUHU216HW,2013-05-15 10:01:00,
2013-05-15 06:06:00,49.9,42.6,29.79,East,90,0.0,0.0,76,0.00,,,0.00,WUHU216HW,2013-05-15 10:06:00,
2013-05-15 06:11:00,49.9,42.6,29.79,East,90,0.0,0.0,76,0.00,,,0.00,WUHU216HW,2013-05-15 10:11:00,
2013-05-15 06:16:00,50.0,42.8,29.79,East,90,0.0,0.0,76,0.00,,,0.00,WUHU216HW,2013-05-15 10:16:00,
2013-05-15 06:21:00,50.0,42.8,29.78,East,90,0.0,0.0,76,0.00,,,0.00,WUHU216HW,2013-05-15 10:21:00,
2013-05-15 06:26:00,50.0,42.8,29.79,ESE,113,0.0,0.0,76,0.00,,,0.00,WUHU216HW,2013-05-15 10:26:00,
2013-05-15 06:31:00,50.2,42.6,29.79,NE,45,0.0,0.0,75,0.00,,,0.00,WUHU216HW,2013-05-15 10:31:00,
2013-05-15 06:36:00,50.4,42.8,29.78,ESE,113,0.0,0.0,75,0.00,,,0.00,WUHU216HW,2013-05-15 10:36:00,
2013-05-15 06:41:00,50.6,42.9,29.78,East,90,0.0,0.0,75,0.00,,,0.00,WUHU216HW,2013-05-15 10:41:00,
2013-05-15 06:46:00,50.6,42.9,29.77,ESE,113,0.0,0.0,75,0.00,,,0.00,WUHU216HW,2013-05-15 10:46:00,
2013-05-15 06:51:00,50.8,43.1,29.77,ESE,113,0.0,0.0,75,0.00,,,0.00,WUHU216HW,2013-05-15 10:51:00,
2013-05-15 06:56:00,50.8,43.5,29.76,East,90,0.0,0.0,76,0.00,,,0.00,WUHU216HW,2013-05-15 10:56:00,
2013-05-15 07:01:00,50.8,43.5,29.76,East,90,0.0,0.0,76,0.00,,,0.00,WUHU216HW,2013-05-15 11:01:00,
2013-05-15 07:06:00,50.8,43.5,29.76,ESE,113,0.0,0.0,76,0.00,,,0.00,WUHU216HW,2013-05-15 11:06:00,
2013-05-15 07:11:00,51.1,43.5,29.75,East,90,0.0,0.0,75,0.00,,,0.00,WUHU216HW,2013-05-15 11:11:00,
2013-05-15 07:16:00,51.3,43.7,29.75,ENE,68,0.0,0.0,75,0.00,,,0.00,WUHU216HW,2013-05-15 11:16:00,
2013-05-15 07:22:00,51.5,43.8,29.76,ESE,113,0.0,0.0,75,0.00,,,0.00,WUHU216HW,2013-05-15 11:22:00,
2013-05-15 07:27:00,51.8,44.2,29.74,ESE,113,0.0,0.0,75,0.00,,,0.00,WUHU216HW,2013-05-15 11:27:00,
2013-05-15 07:32:00,52.2,44.6,29.74,ESE,113,0.0,0.0,75,0.00,,,0.00,WUHU216HW,2013-05-15 11:32:00,
2013-05-15 07:37:00,52.4,44.7,29.74,ENE,68,0.0,0.0,75,0.00,,,0.00,WUHU216HW,2013-05-15 11:37:00,
2013-05-15 07:42:00,52.7,45.0,29.73,East,90,0.0,0.0,75,0.00,,,0.00,WUHU216HW,2013-05-15 11:42:00,
2013-05-15 07:47:00,52.7,45.0,29.72,East,90,0.0,0.0,75,0.00,,,0.00,WUHU216HW,2013-05-15 11:47:00,
2013-05-15 07:52:00,52.6,44.9,29.72,ENE,68,0.0,0.0,75,0.00,,,0.00,WUHU216HW,2013-05-15 11:52:00,
2013-05-15 07:58:00,52.4,45.1,29.73,ENE,68,0.0,0.0,76,0.00,,,0.00,WUHU216HW,2013-05-15 11:58:00,
2013-05-15 08:03:00,52.4,45.1,29.73,NNE,23,0.0,0.0,76,0.00,,,0.00,WUHU216HW,2013-05-15 12:03:00,
2013-05-15 08:08:00,52.4,45.1,29.73,East,90,0.0,0.0,76,0.00,,,0.00,WUHU216HW,2013-05-15 12:08:00,
2013-05-15 08:13:00,52.6,45.2,29.73,WSW,248,0.0,0.0,76,0.00,,,0.00,WUHU216HW,2013-05-15 12:13:00,
2013-05-15 08:18:00,52.6,45.2,29.73,WSW,248,0.0,0.0,76,0.01,,,0.01,WUHU216HW,2013-05-15 12:18:00,
2013-05-15 08:24:00,52.7,46.1,29.73,SW,225,0.0,0.0,78,0.01,,,0.01,WUHU216HW,2013-05-15 12:24:00,
2013-05-15 08:29:00,52.7,46.8,29.74,NNE,23,0.0,0.0,80,0.01,,,0.01,WUHU216HW,2013-05-15 12:29:00,
2013-05-15 08:34:00,52.7,47.4,29.73,East,90,0.0,0.0,82,0.01,,,0.01,WUHU216HW,2013-05-15 12:34:00,
2013-05-15 08:39:00,52.9,47.6,29.72,East,90,0.0,0.0,82,0.01,,,0.01,WUHU216HW,2013-05-15 12:39:00,
2013-05-15 08:44:00,53.5,47.8,29.71,East,90,0.0,0.0,81,0.01,,,0.01,WUHU216HW,2013-05-15 12:44:00,
2013-05-15 08:49:00,54.0,48.1,29.70,East,90,0.0,0.0,80,0.01,,,0.01,WUHU216HW,2013-05-15 12:49:00,
2013-05-15 08:54:00,55.1,48.3,29.69,East,90,0.0,0.0,78,0.01,,,0.01,WUHU216HW,2013-05-15 12:54:00,
2013-05-15 08:59:00,56.5,49.7,29.69,WSW,248,0.0,0.0,78,0.01,,,0.01,WUHU216HW,2013-05-15 12:59:00,
2013-05-15 09:04:00,57.6,50.0,29.69,WSW,248,0.0,0.0,76,0.01,,,0.01,WUHU216HW,2013-05-15 13:04:00,
2013-05-15 09:09:00,58.7,51.1,29.69,SE,135,0.0,0.0,76,0.01,,,0.01,WUHU216HW,2013-05-15 13:09:00,
2013-05-15 09:15:00,59.8,50.4,29.69,WSW,248,0.0,0.0,71,0.01,,,0.01,WUHU216HW,2013-05-15 13:15:00,
2013-05-15 09:20:00,60.1,50.4,29.69,NE,45,0.0,0.0,70,0.00,,,0.01,WUHU216HW,2013-05-15 13:20:00,
2013-05-15 09:25:00,60.5,51.1,29.68,WNW,293,0.0,0.0,71,0.00,,,0.01,WUHU216HW,2013-05-15 13:25:00,
2013-05-15 09:30:00,61.4,51.9,29.68,ENE,68,0.0,0.0,71,0.00,,,0.01,WUHU216HW,2013-05-15 13:30:00,
2013-05-15 09:35:00,62.5,52.9,29.69,WSW,248,0.0,0.0,71,0.00,,,0.01,WUHU216HW,2013-05-15 13:35:00,
2013-05-15 09:40:00,63.4,53.5,29.68,WNW,293,0.0,0.0,70,0.00,,,0.01,WUHU216HW,2013-05-15 13:40:00,
2013-05-15 09:45:00,64.4,52.8,29.68,West,270,0.0,0.0,66,0.00,,,0.01,WUHU216HW,2013-05-15 13:45:00,
2013-05-15 09:50:00,65.2,53.9,29.68,SW,225,0.0,0.0,67,0.00,,,0.01,WUHU216HW,2013-05-15 13:50:00,
2013-05-15 09:55:00,65.9,52.1,29.68,West,270,0.0,0.0,61,0.00,,,0.01,WUHU216HW,2013-05-15 13:55:00,
2013-05-15 10:00:00,66.2,52.8,29.67,SW,225,0.0,0.0,62,0.00,,,0.01,WUHU216HW,2013-05-15 14:00:00,
2013-05-15 10:05:00,66.6,53.7,29.67,West,270,0.0,0.0,63,0.00,,,0.01,WUHU216HW,2013-05-15 14:05:00,
2013-05-15 10:10:00,67.0,53.9,29.66,SW,225,0.0,0.0,63,0.00,,,0.01,WUHU216HW,2013-05-15 14:10:00,
2013-05-15 10:16:00,67.5,54.0,29.65,West,270,0.0,0.0,62,0.00,,,0.01,WUHU216HW,2013-05-15 14:16:00,
2013-05-15 10:21:00,67.9,53.9,29.65,ESE,113,0.0,0.0,61,0.00,,,0.01,WUHU216HW,2013-05-15 14:21:00,
2013-05-15 10:27:00,68.0,53.6,29.65,SSE,158,0.0,0.0,60,0.00,,,0.01,WUHU216HW,2013-05-15 14:27:00,
2013-05-15 10:32:00,68.0,53.6,29.65,SSW,203,0.0,0.0,60,0.00,,,0.01,WUHU216HW,2013-05-15 14:32:00,
2013-05-15 10:37:00,68.4,54.9,29.64,SW,225,0.0,0.0,62,0.00,,,0.01,WUHU216HW,2013-05-15 14:37:00,
2013-05-15 10:42:00,68.9,55.0,29.64,WSW,248,0.0,0.0,61,0.00,,,0.01,WUHU216HW,2013-05-15 14:42:00,
2013-05-15 10:47:00,69.7,54.7,29.64,North,0,0.0,0.0,59,0.00,,,0.01,WUHU216HW,2013-05-15 14:47:00,
2013-05-15 10:52:00,70.0,55.1,29.64,SW,225,0.0,0.0,59,0.00,,,0.01,WUHU216HW,2013-05-15 14:52:00,
2013-05-15 10:57:00,70.6,56.5,29.63,SW,225,0.0,0.0,61,0.00,,,0.01,WUHU216HW,2013-05-15 14:57:00,
2013-05-15 11:02:00,71.1,57.4,29.63,SSE,158,0.0,0.0,62,0.00,,,0.01,WUHU216HW,2013-05-15 15:02:00,
2013-05-15 11:07:00,71.8,57.3,29.62,SW,225,0.0,0.0,60,0.00,,,0.01,WUHU216HW,2013-05-15 15:07:00,
2013-05-15 11:12:00,72.2,57.5,29.62,SW,225,0.0,0.0,60,0.00,,,0.01,WUHU216HW,2013-05-15 15:12:00,
2013-05-15 11:17:00,72.5,57.9,29.62,West,270,0.0,0.0,60,0.00,,,0.01,WUHU216HW,2013-05-15 15:17:00,
2013-05-15 11:23:00,73.1,57.9,29.61,WSW,248,0.0,0.0,59,0.00,,,0.01,WUHU216HW,2013-05-15 15:23:00,
2013-05-15 11:28:00,73.6,58.9,29.61,SSW,203,0.0,0.0,60,0.00,,,0.01,WUHU216HW,2013-05-15 15:28:00,
2013-05-15 11:33:00,74.0,58.7,29.62,SW,225,0.0,0.0,59,0.00,,,0.01,WUHU216HW,2013-05-15 15:33:00,
2013-05-15 11:38:00,74.5,58.8,29.61,WSW,248,0.0,0.0,58,0.00,,,0.01,WUHU216HW,2013-05-15 15:38:00,
2013-05-15 11:43:00,74.9,58.6,29.60,WSW,248,0.0,0.0,57,0.00,,,0.01,WUHU216HW,2013-05-15 15:43:00,
2013-05-15 11:49:00,75.2,58.5,29.60,South,180,0.0,0.0,56,0.00,,,0.01,WUHU216HW,2013-05-15 15:49:00,
2013-05-15 11:54:00,75.4,59.1,29.60,SW,225,0.0,0.0,57,0.00,,,0.01,WUHU216HW,2013-05-15 15:54:00,
2013-05-15 11:59:00,75.6,58.8,29.59,WSW,248,0.0,0.0,56,0.00,,,0.01,WUHU216HW,2013-05-15 15:59:00,
2013-05-15 12:04:00,75.6,59.3,29.59,SW,225,0.0,0.0,57,0.00,,,0.01,WUHU216HW,2013-05-15 16:04:00,
2013-05-15 12:10:00,75.6,58.8,29.60,West,270,0.0,0.0,56,0.00,,,0.01,WUHU216HW,2013-05-15 16:10:00,
2013-05-15 12:15:00,75.8,59.5,29.60,West,270,0.0,0.0,57,0.00,,,0.01,WUHU216HW,2013-05-15 16:15:00,
2013-05-15 12:20:00,76.0,59.1,29.60,SSW,203,0.0,0.0,56,0.00,,,0.01,WUHU216HW,2013-05-15 16:20:00,
2013-05-15 12:25:00,75.6,58.3,29.60,West,270,0.0,0.0,55,0.00,,,0.01,WUHU216HW,2013-05-15 16:25:00,
2013-05-15 12:30:00,75.4,59.1,29.60,SW,225,0.0,0.0,57,0.00,,,0.01,WUHU216HW,2013-05-15 16:30:00,
2013-05-15 12:35:00,75.2,58.5,29.59,WSW,248,0.0,0.0,56,0.00,,,0.01,WUHU216HW,2013-05-15 16:35:00,
2013-05-15 12:41:00,75.2,59.0,29.59,West,270,0.0,0.0,57,0.00,,,0.01,WUHU216HW,2013-05-15 16:41:00,
2013-05-15 12:46:00,75.4,59.7,29.60,WNW,293,0.0,0.0,58,0.00,,,0.01,WUHU216HW,2013-05-15 16:46:00,
2013-05-15 12:51:00,75.8,59.9,29.60,West,270,0.0,0.0,58,0.00,,,0.01,WUHU216HW,2013-05-15 16:51:00,
2013-05-15 12:57:00,76.1,59.3,29.60,SW,225,0.0,0.0,56,0.00,,,0.01,WUHU216HW,2013-05-15 16:57:00,
2013-05-15 13:02:00,76.5,60.1,29.60,SW,225,0.0,0.0,57,0.00,,,0.01,WUHU216HW,2013-05-15 17:02:00,
2013-05-15 13:07:00,76.7,59.8,29.60,SW,225,0.0,0.0,56,0.00,,,0.01,WUHU216HW,2013-05-15 17:07:00,
2013-05-15 13:12:00,77.0,59.6,29.60,WSW,248,0.0,0.0,55,0.00,,,0.01,WUHU216HW,2013-05-15 17:12:00,
2013-05-15 13:17:00,76.9,60.0,29.60,SW,225,0.0,0.0,56,0.00,,,0.01,WUHU216HW,2013-05-15 17:17:00,
2013-05-15 13:22:00,77.0,60.1,29.60,SW,225,0.0,0.0,56,0.00,,,0.01,WUHU216HW,2013-05-15 17:22:00,
2013-05-15 13:27:00,77.0,60.1,29.60,WSW,248,0.0,0.0,56,0.00,,,0.01,WUHU216HW,2013-05-15 17:27:00,
2013-05-15 13:32:00,77.4,60.4,29.61,WNW,293,0.0,0.0,56,0.00,,,0.01,WUHU216HW,2013-05-15 17:32:00,
2013-05-15 13:37:00,77.6,60.1,29.61,West,270,0.0,0.0,55,0.00,,,0.01,WUHU216HW,2013-05-15 17:37:00,
2013-05-15 13:42:00,77.8,60.3,29.61,WSW,248,0.0,0.0,55,0.00,,,0.01,WUHU216HW,2013-05-15 17:42:00,
2013-05-15 13:47:00,78.1,61.7,29.61,WSW,248,0.0,0.0,57,0.00,,,0.01,WUHU216HW,2013-05-15 17:47:00,
2013-05-15 13:52:00,78.5,60.4,29.61,NW,315,0.0,0.0,54,0.00,,,0.01,WUHU216HW,2013-05-15 17:52:00,
2013-05-15 13:58:00,78.1,60.6,29.61,SW,225,0.0,0.0,55,0.00,,,0.01,WUHU216HW,2013-05-15 17:58:00,
2013-05-15 14:03:00,78.3,60.8,29.62,SW,225,0.0,0.0,55,0.00,,,0.01,WUHU216HW,2013-05-15 18:03:00,
2013-05-15 14:08:00,78.5,61.5,29.62,SW,225,0.0,0.0,56,0.00,,,0.01,WUHU216HW,2013-05-15 18:08:00,
2013-05-15 14:13:00,78.8,61.8,29.63,West,270,0.0,0.0,56,0.00,,,0.01,WUHU216HW,2013-05-15 18:13:00,
2013-05-15 14:18:00,79.4,61.3,29.63,WSW,248,0.0,0.0,54,0.00,,,0.01,WUHU216HW,2013-05-15 18:18:00,
2013-05-15 14:23:00,79.6,60.9,29.63,South,180,0.0,0.0,53,0.00,,,0.01,WUHU216HW,2013-05-15 18:23:00,
2013-05-15 14:28:00,80.1,60.8,29.63,SW,225,0.0,0.0,52,0.00,,,0.01,WUHU216HW,2013-05-15 18:28:00,
2013-05-15 14:33:00,80.1,60.8,29.64,SW,225,0.0,0.0,52,0.00,,,0.01,WUHU216HW,2013-05-15 18:33:00,
2013-05-15 14:38:00,79.9,57.3,29.65,West,270,0.0,0.0,46,0.00,,,0.01,WUHU216HW,2013-05-15 18:38:00,
2013-05-15 14:44:00,79.7,55.8,29.64,WSW,248,0.0,0.0,44,0.00,,,0.01,WUHU216HW,2013-05-15 18:44:00,
2013-05-15 14:49:00,79.4,55.5,29.65,NW,315,0.0,0.0,44,0.00,,,0.01,WUHU216HW,2013-05-15 18:49:00,
2013-05-15 14:54:00,79.2,56.0,29.66,WNW,293,0.0,0.0,45,0.00,,,0.01,WUHU216HW,2013-05-15 18:54:00,
2013-05-15 14:59:00,79.2,55.4,29.66,WNW,293,0.0,0.0,44,0.00,,,0.01,WUHU216HW,2013-05-15 18:59:00,
2013-05-15 15:04:00,79.0,54.5,29.66,West,270,0.0,0.0,43,0.00,,,0.01,WUHU216HW,2013-05-15 19:04:00,
2013-05-15 15:09:00,78.8,55.0,29.67,WSW,248,0.0,0.0,44,0.00,,,0.01,WUHU216HW,2013-05-15 19:09:00,
2013-05-15 15:15:00,79.0,55.2,29.67,NW,315,0.0,0.0,44,0.00,,,0.01,WUHU216HW,2013-05-15 19:15:00,
2013-05-15 15:20:00,79.2,54.1,29.67,SSE,158,0.0,0.0,42,0.00,,,0.01,WUHU216HW,2013-05-15 19:20:00,
2013-05-15 15:25:00,78.8,54.4,29.68,WSW,248,0.0,0.0,43,0.00,,,0.01,WUHU216HW,2013-05-15 19:25:00,
2013-05-15 15:30:00,78.7,53.7,29.68,West,270,0.0,0.0,42,0.00,,,0.01,WUHU216HW,2013-05-15 19:30:00,
2013-05-15 15:35:00,78.3,53.9,29.68,WSW,248,0.0,0.0,43,0.00,,,0.01,WUHU216HW,2013-05-15 19:35:00,
2013-05-15 15:40:00,78.1,53.7,29.69,SW,225,0.0,0.0,43,0.00,,,0.01,WUHU216HW,2013-05-15 19:40:00,
2013-05-15 15:46:00,78.1,53.7,29.69,WSW,248,0.0,0.0,43,0.00,,,0.01,WUHU216HW,2013-05-15 19:46:00,
2013-05-15 15:51:00,78.1,53.1,29.70,SSW,203,0.0,0.0,42,0.00,,,0.01,WUHU216HW,2013-05-15 19:51:00,
2013-05-15 15:56:00,77.8,53.5,29.70,WSW,248,0.0,0.0,43,0.00,,,0.01,WUHU216HW,2013-05-15 19:56:00,
2013-05-15 16:01:00,77.9,52.4,29.70,SW,225,0.0,0.0,41,0.00,,,0.01,WUHU216HW,2013-05-15 20:01:00,
2013-05-15 16:06:00,77.8,52.8,29.70,North,0,0.0,0.0,42,0.00,,,0.01,WUHU216HW,2013-05-15 20:06:00,
2013-05-15 16:11:00,76.7,52.5,29.70,WNW,293,0.0,0.0,43,0.00,,,0.01,WUHU216HW,2013-05-15 20:11:00,
2013-05-15 16:16:00,76.1,51.9,29.71,WSW,248,0.0,0.0,43,0.00,,,0.01,WUHU216HW,2013-05-15 20:16:00,
2013-05-15 16:21:00,75.4,50.7,29.71,NNW,338,0.0,0.0,42,0.00,,,0.01,WUHU216HW,2013-05-15 20:21:00,
2013-05-15 16:26:00,75.2,52.4,29.71,WSW,248,0.0,0.0,45,0.00,,,0.01,WUHU216HW,2013-05-15 20:26:00,
2013-05-15 16:31:00,74.9,52.0,29.71,WSW,248,0.0,0.0,45,0.00,,,0.01,WUHU216HW,2013-05-15 20:31:00,
2013-05-15 16:36:00,74.5,51.7,29.71,WSW,248,0.0,0.0,45,0.00,,,0.01,WUHU216HW,2013-05-15 20:36:00,
2013-05-15 16:42:00,74.2,51.9,29.71,WSW,248,0.0,0.0,46,0.00,,,0.01,WUHU216HW,2013-05-15 20:42:00,
2013-05-15 16:47:00,73.8,51.6,29.71,NW,315,0.0,0.0,46,0.00,,,0.01,WUHU216HW,2013-05-15 20:47:00,
2013-05-15 16:52:00,73.6,52.0,29.71,WSW,248,0.0,0.0,47,0.00,,,0.01,WUHU216HW,2013-05-15 20:52:00,
2013-05-15 16:57:00,73.8,52.2,29.71,SW,225,0.0,0.0,47,0.00,,,0.01,WUHU216HW,2013-05-15 20:57:00,
2013-05-15 17:02:00,74.0,52.4,29.72,SE,135,0.0,0.0,47,0.00,,,0.01,WUHU216HW,2013-05-15 21:02:00,
2013-05-15 17:07:00,74.5,52.9,29.72,NE,45,0.0,0.0,47,0.00,,,0.01,WUHU216HW,2013-05-15 21:07:00,
2013-05-15 17:12:00,75.4,54.4,29.72,NE,45,0.0,0.0,48,0.00,,,0.01,WUHU216HW,2013-05-15 21:12:00,
2013-05-15 17:17:00,76.3,54.5,29.72,NW,315,0.0,0.0,47,0.00,,,0.01,WUHU216HW,2013-05-15 21:17:00,
2013-05-15 17:22:00,76.9,54.5,29.73,SSW,203,0.0,0.0,46,0.00,,,0.01,WUHU216HW,2013-05-15 21:22:00,
2013-05-15 17:27:00,76.9,53.8,29.73,SW,225,0.0,0.0,45,0.00,,,0.01,WUHU216HW,2013-05-15 21:27:00,
2013-05-15 17:32:00,77.0,53.4,29.72,West,270,0.0,0.0,44,0.00,,,0.01,WUHU216HW,2013-05-15 21:32:00,
2013-05-15 17:37:00,76.9,53.2,29.73,NW,315,0.0,0.0,44,0.00,,,0.01,WUHU216HW,2013-05-15 21:37:00,
2013-05-15 17:42:00,76.5,51.7,29.73,SW,225,0.0,0.0,42,0.00,,,0.01,WUHU216HW,2013-05-15 21:42:00,
2013-05-15 17:47:00,76.1,51.4,29.74,NW,315,0.0,0.0,42,0.00,,,0.01,WUHU216HW,2013-05-15 21:47:00,
2013-05-15 17:53:00,76.1,52.6,29.74,NW,315,0.0,0.0,44,0.00,,,0.01,WUHU216HW,2013-05-15 21:53:00,
2013-05-15 17:58:00,76.3,52.1,29.74,West,270,0.0,0.0,43,0.00,,,0.01,WUHU216HW,2013-05-15 21:58:00,
2013-05-15 18:03:00,75.8,51.7,29.74,West,270,0.0,0.0,43,0.00,,,0.01,WUHU216HW,2013-05-15 22:03:00,
2013-05-15 18:08:00,75.1,51.6,29.74,WNW,293,0.0,0.0,44,0.00,,,0.01,WUHU216HW,2013-05-15 22:08:00,
2013-05-15 18:14:00,74.5,51.1,29.75,North,0,0.0,0.0,44,0.00,,,0.01,WUHU216HW,2013-05-15 22:14:00,
2013-05-15 18:19:00,74.5,51.7,29.75,NNE,23,0.0,0.0,45,0.00,,,0.01,WUHU216HW,2013-05-15 22:19:00,
2013-05-15 18:24:00,74.3,51.6,29.75,SW,225,0.0,0.0,45,0.00,,,0.01,WUHU216HW,2013-05-15 22:24:00,
2013-05-15 18:29:00,74.5,51.1,29.75,SW,225,0.0,0.0,44,0.00,,,0.01,WUHU216HW,2013-05-15 22:29:00,
2013-05-15 18:34:00,73.8,50.4,29.75,WSW,248,0.0,0.0,44,0.00,,,0.01,WUHU216HW,2013-05-15 22:34:00,
2013-05-15 18:39:00,73.6,50.2,29.76,NE,45,0.0,0.0,44,0.00,,,0.01,WUHU216HW,2013-05-15 22:39:00,
2013-05-15 18:44:00,74.0,48.8,29.76,West,270,0.0,0.0,41,0.00,,,0.01,WUHU216HW,2013-05-15 22:44:00,
2013-05-15 18:49:00,74.9,50.2,29.76,NNE,23,0.0,0.0,42,0.00,,,0.01,WUHU216HW,2013-05-15 22:49:00,
2013-05-15 18:54:00,76.7,51.2,29.76,WSW,248,0.0,0.0,41,0.00,,,0.01,WUHU216HW,2013-05-15 22:54:00,
2013-05-15 18:59:00,78.5,50.7,29.76,WSW,248,0.0,0.0,38,0.00,,,0.01,WUHU216HW,2013-05-15 22:59:00,
2013-05-15 19:05:00,78.7,50.9,29.77,West,270,0.0,0.0,38,0.00,,,0.01,WUHU216HW,2013-05-15 23:05:00,
2013-05-15 19:10:00,79.6,49.3,29.77,NW,315,0.0,0.0,35,0.00,,,0.01,WUHU216HW,2013-05-15 23:10:00,
2013-05-15 19:15:00,77.6,48.4,29.77,West,270,0.0,0.0,36,0.00,,,0.01,WUHU216HW,2013-05-15 23:15:00,
2013-05-15 19:20:00,75.2,47.8,29.77,West,270,0.0,0.0,38,0.00,,,0.01,WUHU216HW,2013-05-15 23:20:00,
2013-05-15 19:26:00,72.7,46.3,29.77,WSW,248,0.0,0.0,39,0.00,,,0.01,WUHU216HW,2013-05-15 23:26:00,
2013-05-15 19:31:00,70.9,46.0,29.78,WSW,248,0.0,0.0,41,0.00,,,0.01,WUHU216HW,2013-05-15 23:31:00,
2013-05-15 19:36:00,70.0,45.2,29.77,WSW,248,0.0,0.0,41,0.00,,,0.01,WUHU216HW,2013-05-15 23:36:00,
2013-05-15 19:42:00,69.5,45.4,29.78,SW,225,0.0,0.0,42,0.00,,,0.01,WUHU216HW,2013-05-15 23:42:00,
2013-05-15 19:47:00,68.8,44.6,29.78,SW,225,0.0,0.0,42,0.00,,,0.01,WUHU216HW,2013-05-15 23:47:00,
2013-05-15 19:52:00,68.4,44.4,29.78,SSW,203,0.0,0.0,42,0.00,,,0.01,WUHU216HW,2013-05-15 23:52:00,
2013-05-15 19:57:00,68.0,44.0,29.78,WSW,248,0.0,0.0,42,0.00,,,0.01,WUHU216HW,2013-05-15 23:57:00,
2013-05-15 20:02:00,67.5,44.1,29.78,WSW,248,0.0,0.0,43,0.00,,,0.01,WUHU216HW,2013-05-16 00:02:00,
2013-05-15 20:07:00,67.1,43.8,29.78,WSW,248,0.0,0.0,43,0.00,,,0.01,WUHU216HW,2013-05-16 00:07:00,
2013-05-15 20:12:00,66.8,43.5,29.78,SW,225,0.0,0.0,43,0.00,,,0.01,WUHU216HW,2013-05-16 00:12:00,
2013-05-15 20:18:00,66.6,43.3,29.78,SSW,203,0.0,0.0,43,0.00,,,0.01,WUHU216HW,2013-05-16 00:18:00,
2013-05-15 20:23:00,66.2,43.0,29.78,SW,225,0.0,0.0,43,0.00,,,0.01,WUHU216HW,2013-05-16 00:23:00,
2013-05-15 20:28:00,65.9,43.3,29.78,SW,225,0.0,0.0,44,0.00,,,0.01,WUHU216HW,2013-05-16 00:28:00,
2013-05-15 20:33:00,65.7,43.1,29.78,NW,315,0.0,0.0,44,0.00,,,0.01,WUHU216HW,2013-05-16 00:33:00,
2013-05-15 20:38:00,65.3,43.4,29.79,NW,315,0.0,0.0,45,0.00,,,0.01,WUHU216HW,2013-05-16 00:38:00,
2013-05-15 20:43:00,65.0,43.0,29.79,NW,315,0.0,0.0,45,0.00,,,0.01,WUHU216HW,2013-05-16 00:43:00,
2013-05-15 20:49:00,64.6,43.2,29.79,NW,315,0.0,0.0,46,0.00,,,0.01,WUHU216HW,2013-05-16 00:49:00,
2013-05-15 20:54:00,64.3,42.9,29.79,NW,315,0.0,0.0,46,0.00,,,0.01,WUHU216HW,2013-05-16 00:54:00,
2013-05-15 20:59:00,64.1,43.3,29.79,NW,315,0.0,0.0,47,0.00,,,0.01,WUHU216HW,2013-05-16 00:59:00,
2013-05-15 21:04:00,63.7,43.6,29.79,NW,315,0.0,0.0,48,0.00,,,0.01,WUHU216HW,2013-05-16 01:04:00,
2013-05-15 21:09:00,63.5,44.0,29.79,NW,315,0.0,0.0,49,0.00,,,0.01,WUHU216HW,2013-05-16 01:09:00,
2013-05-15 21:14:00,63.2,43.7,29.78,NW,315,0.0,0.0,49,0.00,,,0.01,WUHU216HW,2013-05-16 01:14:00,
2013-05-15 21:19:00,63.0,43.5,29.78,NW,315,0.0,0.0,49,0.00,,,0.01,WUHU216HW,2013-05-16 01:19:00,
2013-05-15 21:24:00,62.6,43.7,29.79,North,0,0.0,0.0,50,0.00,,,0.01,WUHU216HW,2013-05-16 01:24:00,
2013-05-15 21:29:00,62.6,44.2,29.79,North,0,0.0,0.0,51,0.00,,,0.01,WUHU216HW,2013-05-16 01:29:00,
2013-05-15 21:35:00,62.5,44.6,29.80,North,0,0.0,0.0,52,0.00,,,0.01,WUHU216HW,2013-05-16 01:35:00,
2013-05-15 21:40:00,62.3,44.4,29.80,North,0,0.0,0.0,52,0.00,,,0.01,WUHU216HW,2013-05-16 01:40:00,
2013-05-15 21:45:00,61.9,44.6,29.81,North,0,0.0,0.0,53,0.00,,,0.01,WUHU216HW,2013-05-16 01:45:00,
2013-05-15 21:50:00,61.7,44.4,29.81,North,0,0.0,0.0,53,0.00,,,0.01,WUHU216HW,2013-05-16 01:50:00,
2013-05-15 21:56:00,61.6,44.7,29.81,North,0,0.0,0.0,54,0.00,,,0.01,WUHU216HW,2013-05-16 01:56:00,
2013-05-15 22:01:00,61.2,44.4,29.81,North,0,0.0,0.0,54,0.00,,,0.01,WUHU216HW,2013-05-16 02:01:00,
2013-05-15 22:06:00,61.2,44.4,29.81,North,0,0.0,0.0,54,0.00,,,0.01,WUHU216HW,2013-05-16 02:06:00,
2013-05-15 22:11:00,61.0,44.7,29.81,North,0,0.0,0.0,55,0.00,,,0.01,WUHU216HW,2013-05-16 02:11:00,
2013-05-15 22:16:00,60.8,45.6,29.81,North,0,0.0,0.0,57,0.00,,,0.01,WUHU216HW,2013-05-16 02:16:00,
2013-05-15 22:21:00,60.7,45.4,29.81,North,0,0.0,0.0,57,0.00,,,0.01,WUHU216HW,2013-05-16 02:21:00,
2013-05-15 22:26:00,60.5,45.6,29.81,North,0,0.0,0.0,58,0.00,,,0.01,WUHU216HW,2013-05-16 02:26:00,
2013-05-15 22:31:00,60.3,45.5,29.81,North,0,0.0,0.0,58,0.00,,,0.01,WUHU216HW,2013-05-16 02:31:00,
2013-05-15 22:36:00,60.1,45.3,29.81,North,0,0.0,0.0,58,0.00,,,0.01,WUHU216HW,2013-05-16 02:36:00,
2013-05-15 22:42:00,60.1,45.3,29.81,North,0,0.0,0.0,58,0.00,,,0.01,WUHU216HW,2013-05-16 02:42:00,
2013-05-15 22:47:00,60.3,46.0,29.81,North,0,0.0,0.0,59,0.00,,,0.01,WUHU216HW,2013-05-16 02:47:00,
2013-05-15 22:52:00,60.3,46.0,29.81,North,0,0.0,0.0,59,0.00,,,0.01,WUHU216HW,2013-05-16 02:52:00,
2013-05-15 22:57:00,60.3,46.0,29.81,North,0,0.0,0.0,59,0.00,,,0.01,WUHU216HW,2013-05-16 02:57:00,
2013-05-15 23:02:00,60.1,45.8,29.81,North,0,0.0,0.0,59,0.00,,,0.01,WUHU216HW,2013-05-16 03:02:00,
2013-05-15 23:07:00,60.1,45.8,29.80,North,0,0.0,0.0,59,0.00,,,0.01,WUHU216HW,2013-05-16 03:07:00,
2013-05-15 23:12:00,59.9,46.1,29.80,North,0,0.0,0.0,60,0.00,,,0.01,WUHU216HW,2013-05-16 03:12:00,
2013-05-15 23:17:00,59.8,45.9,29.80,North,0,0.0,0.0,60,0.00,,,0.01,WUHU216HW,2013-05-16 03:17:00,
2013-05-15 23:22:00,59.6,45.7,29.80,North,0,0.0,0.0,60,0.00,,,0.01,WUHU216HW,2013-05-16 03:22:00,
2013-05-15 23:27:00,59.6,46.2,29.80,North,0,0.0,0.0,61,0.00,,,0.01,WUHU216HW,2013-05-16 03:27:00,
2013-05-15 23:33:00,59.4,46.0,29.80,North,0,0.0,0.0,61,0.00,,,0.01,WUHU216HW,2013-05-16 03:33:00,
2013-05-15 23:38:00,59.4,46.0,29.80,North,0,0.0,0.0,61,0.00,,,0.01,WUHU216HW,2013-05-16 03:38:00,
2013-05-15 23:43:00,59.0,46.0,29.81,North,0,0.0,0.0,62,0.00,,,0.01,WUHU216HW,2013-05-16 03:43:00,
2013-05-15 23:48:00,58.9,45.8,29.81,North,0,0.0,0.0,62,0.00,,,0.01,WUHU216HW,2013-05-16 03:48:00,
2013-05-15 23:53:00,58.7,45.7,29.81,SW,225,0.0,0.0,62,0.00,,,0.01,WUHU216HW,2013-05-16 03:53:00,
2013-05-15 23:58:00,58.5,46.4,29.81,SSW,203,0.0,0.0,64,0.00,,,0.01,WUHU216HW,2013-05-16 03:58:00,